Alliance, NE

6:02 PM MDT on May 22, 2018 (GMT -0600)
Alliance Municipal

Weather History for KAIA - May, 2013

Change the Weather History Date:

Thursday, May 16, 2013

  Actual Average Record
Temperature  
Mean Temperature 67 °F 55 °F  
Max Temperature 81 °F 71 °F 92 °F (1934)
Min Temperature 52 °F 39 °F 26 °F (2016)
Degree Days  
Heating Degree Days 0 10  
Month to date heating degree days 208 208  
Since 1 July heating degree days 7038 7097  
Cooling Degree Days 2 0  
Month to date cooling degree days 13 0  
Year to date cooling degree days 13 0  
Growing Degree Days 16 (Base 50)    
Moisture  
Dew Point 49 °F    
Average Humidity 57    
Maximum Humidity 86    
Minimum Humidity 28    
Precipitation  
Precipitation 0.03 in 0.07 in 1.79 in (1991)
Month to date precipitation 0.60 1.20  
Year to date precipitation 3.42 4.06  
Sea Level Pressure  
Sea Level Pressure 29.75 in    
Wind  
Wind Speed 7 mph (SE)    
Max Wind Speed 35 mph    
Max Gust Speed 43 mph    
Visibility 10 miles    
Events Rain , Thunderstorm    
T = Trace of Precipitation, MM = Missing Value Source: NWS Daily Summary

Daily Weather History Graph

Daily Weather History Graph

Search for Another Location

Airport or City:

Astronomy

May. 16, 2013 Rise Set
Actual Time 5:29 AM MDT 8:06 PM MDT
Civil Twilight 4:57 AM MDT 8:38 PM MDT
Nautical Twilight 4:17 AM MDT 9:18 PM MDT
Astronomical Twilight 3:31 AM MDT 10:04 PM MDT
Moon 11:06 AM MDT (5/16) 12:26 AM MDT (5/16)
Length of Visible Light 15h 41m
Length of Day
14h 37m
Waxing Crescent, 36% of the Moon is Illuminated
May 16
Waxing Crescent
May 17
First Quarter
May 24
Full
May 31
Last Quarter
Jun 8
New

Hourly Weather History & Observations

Time (MDT) Temp. Dew Point Humidity Pressure Visibility Wind Dir Wind Speed Gust Speed Precip Events Conditions
12:53 AM 57.9 °F 39.9 °F 51% 29.83 in 10.0 mi West 3.5 mph - N/A   Clear
1:53 AM 55.0 °F 42.1 °F 62% 29.82 in 10.0 mi Calm Calm - N/A   Clear
2:53 AM 54.0 °F 43.0 °F 66% 29.79 in 10.0 mi ESE 3.5 mph - N/A   Clear
3:53 AM 55.0 °F 46.0 °F 72% 29.77 in 10.0 mi NE 8.1 mph - 0.00 in Rain Light Rain
4:53 AM 54.0 °F 44.1 °F 69% 29.76 in 10.0 mi East 3.5 mph - N/A   Partly Cloudy
5:53 AM 54.0 °F 46.0 °F 75% 29.76 in 10.0 mi East 5.8 mph - N/A   Overcast
6:53 AM 54.0 °F 46.9 °F 77% 29.77 in 10.0 mi ESE 3.5 mph - N/A   Mostly Cloudy
7:53 AM 55.0 °F 48.0 °F 77% 29.76 in 10.0 mi East 9.2 mph - N/A   Overcast
8:53 AM 57.0 °F 51.1 °F 81% 29.78 in 10.0 mi East 8.1 mph - N/A   Mostly Cloudy
9:53 AM 60.1 °F 54.0 °F 80% 29.79 in 10.0 mi SE 6.9 mph - N/A   Overcast
10:25 AM 62.6 °F 53.6 °F 72% 29.87 in 10.0 mi SE 9.2 mph - N/A   Mostly Cloudy
10:33 AM 64.4 °F 53.6 °F 68% 29.87 in 10.0 mi ESE 10.4 mph - N/A   Mostly Cloudy
10:53 AM 64.9 °F 55.0 °F 70% 29.78 in 10.0 mi SSE 10.4 mph - N/A   Mostly Cloudy
11:53 AM 70.0 °F 53.1 °F 55% 29.75 in 10.0 mi SSE 10.4 mph - N/A   Clear
12:53 PM 75.9 °F 51.1 °F 42% 29.70 in 10.0 mi South 10.4 mph - N/A   Clear
1:53 PM 79.0 °F 45.0 °F 30% 29.67 in 10.0 mi WSW 15.0 mph 18.4 mph N/A   Clear
2:53 PM 79.0 °F 43.0 °F 28% 29.64 in 10.0 mi WSW 11.5 mph - N/A   Clear
3:53 PM 79.0 °F 43.0 °F 28% 29.63 in 10.0 mi Calm Calm - N/A   Clear
4:39 PM 71.6 °F 44.6 °F 38% 29.78 in 10.0 mi WNW 24.2 mph 42.6 mph N/A Thunderstorm Mostly Cloudy
4:53 PM 68.0 °F 46.9 °F 47% 29.71 in 10.0 mi WNW 23.0 mph 41.4 mph 0.00 in Rain , Thunderstorm Light Rain
5:14 PM 60.8 °F 53.6 °F 77% 29.76 in 10.0 mi South 12.7 mph 21.9 mph 0.03 in Rain , Thunderstorm Light Thunderstorms and Rain
5:44 PM 64.4 °F 50.0 °F 59% 29.78 in 10.0 mi WNW 13.8 mph 19.6 mph 0.03 in   Partly Cloudy
5:53 PM 64.9 °F 50.0 °F 58% 29.69 in 10.0 mi West 5.8 mph 19.6 mph 0.03 in   Partly Cloudy
6:53 PM 69.1 °F 51.1 °F 53% 29.68 in 10.0 mi NNW 6.9 mph - N/A   Clear
7:53 PM 62.1 °F 55.0 °F 78% 29.71 in 10.0 mi SSW 5.8 mph - N/A   Clear
8:53 PM 59.0 °F 53.1 °F 81% 29.74 in 10.0 mi Calm Calm - N/A   Clear
9:53 PM 57.9 °F 52.0 °F 81% 29.78 in 10.0 mi ESE 9.2 mph - N/A   Clear
10:53 PM 55.9 °F 52.0 °F 87% 29.77 in 10.0 mi SE 6.9 mph - N/A   Clear
11:53 PM 55.9 °F 52.0 °F 87% 29.75 in 10.0 mi ESE 4.6 mph - N/A   Clear